Temperature
11 11 11 11 11 11 11 11 11 11 11 12 12 13 13 13 13 13 13 14 14 14 14 14 15 15 15 15 15 16 16 16 16 16 16 17 17 17
11 11 11 11 11 11 11 11 11 10 10 11 12 12 12 12 13 13 13 13 13 13 14 14 14 14 15 15 15 15 15 16 16 16 16 16 16 16
11 11 11 11 11 11 10 10 10 10 10 11 11 11 12 12 12 12 13 13 13 13 13 14 14 14 14 14 15 15 15 15 15 16 16 16 16 16
11 11 11 11 11 10 10 10 10 10 10 10 11 11 11 11 12 12 12 12 13 13 13 13 14 14 14 14 14 14 15 15 15 15 15 16 16 16
11 11 11 10 10 10 10 10 10 10 10 10 10 11 11 11 11 11 12 12 12 12 13 13 13 13 14 14 14 14 14 15 15 15 15 15 15 16
11 11 10 10 10 10 10 10 10 10 10 10 10 10 10 11 10 11 11 11 12 12 12 12 13 13 13 13 14 14 14 14 14 15 15 15 15 15
11 10 10 10 10 10 10 10 10 10 10 10 10 10 10 10 10 10 10 11 11 11 12 12 12 12 13 13 13 14 14 14 14 14 15 15 15 15
11 11 10 10 10 10 10 10 10 9 9 9 9 9 10 10 10 10 10 10 10 11 11 12 12 12 12 13 13 13 13 14 14 14 14 14 15 15
11 11 11 11 10 10 10 10 9 9 9 9 9 9 10 10 9 9 9 9 10 10 10 11 11 12 12 12 13 13 13 13 13 14 14 14 14 15
11 11 11 11 10 10 10 10 10 10 9 9 9 9 9 9 9 9 9 9 9 10 10 10 11 11 12 12 12 13 13 13 13 13 14 14 14 14
12 11 11 10 10 10 9 9 10 10 10 9 9 9 9 9 9 9 9 9 9 10 10 9 10 11 12 12 12 13 13 13 13 13 13 13 14 14
12 11 11 10 10 10 9 9 9 10 9 9 9 9 9 9 9 8 8 8 8 9 10 9 10 10 11 11 12 12 12 13 13 13 13 13 13 13
12 12 11 10 10 10 9 9 9 9 9 9 9 9 9 9 9 8 8 8 8 8 9 9 9 9 9 10 11 11 12 12 12 12 12 13 13 13
12 11 11 10 10 10 10 9 9 9 9 8 8 8 8 9 9 8 8 8 8 8 9 9 9 9 9 9 10 11 11 11 11 12 12 12 12 12
12 11 11 10 10 10 9 9 9 9 8 8 8 8 8 8 8 8 8 8 8 8 9 9 9 9 9 9 9 10 11 11 11 11 12 12 12 12
11 11 10 10 10 9 9 9 9 9 8 8 8 8 8 8 8 8 8 8 8 8 9 9 9 9 9 9 9 10 10 10 11 11 11 11 12 12
11 11 10 10 10 9 9 9 9 8 8 8 8 8 8 8 8 8 8 8 8 8 8 9 9 9 9 9 9 9 10 10 11 11 11 11 11 12
10 10 10 10 9 9 9 9 9 8 8 8 8 8 8 8 8 8 8 8 8 8 8 9 9 9 9 9 9 9 10 10 11 11 11 11 11 11
10 10 10 10 9 9 9 9 9 9 8 8 8 8 8 8 8 8 8 8 8 8 8 8 9 8 8 8 9 10 10 10 10 10 11 11 11 11
10 10 10 10 9 9 9 9 9 8 8 8 8 8 8 8 8 8 8 8 8 8 8 8 8 9 9 9 9 10 10 10 10 10 10 10 11 11
10 10 10 9 9 9 9 9 8 8 8 8 8 8 8 8 8 8 8 8 8 8 8 8 9 9 9 9 8 9 9 9 9 10 10 10 10 10
10 9 9 9 9 9 9 8 8 8 8 8 8 8 8 8 8 8 8 8 8 8 8 8 9 8 8 8 8 9 9 9 9 9 9 10 10 10
9 9 9 9 8 8 8 8 8 8 8 8 8 8 8 8 8 8 8 8 8 8 8 8 8 8 8 8 9 9 9 9 9 9 9 9 10 10
Wind_Speed
4 4 4 4 3 3 3 4 3 3 4 4 4 4 7 9 10 9 9 12 12 13 15 16 17 18 19 21 24 28 30 32 33 34 34 34 33 32
4 5 5 4 4 4 4 3 4 4 4 4 4 5 5 8 10 10 11 14 14 14 15 16 17 18 20 21 22 25 28 30 32 34 34 34 33 33
6 6 7 6 5 4 4 4 4 4 5 5 4 4 4 6 8 10 12 12 13 16 16 16 17 19 20 21 22 24 25 28 30 32 33 34 34 33
7 7 7 6 6 5 5 5 5 5 5 6 4 3 5 6 6 7 7 10 11 15 17 18 19 20 20 21 22 23 24 26 28 30 32 33 33 33
8 8 8 7 7 6 6 6 5 5 5 5 5 4 4 4 5 6 6 5 8 12 15 16 18 19 19 20 21 22 24 25 26 28 30 31 32 32
7 7 7 7 8 8 7 7 6 6 5 5 5 4 4 4 3 4 5 4 5 7 9 10 12 15 17 18 20 21 22 24 25 27 28 30 31 32
7 7 8 10 11 9 7 7 7 6 5 5 5 4 4 4 4 3 4 5 5 3 3 4 4 5 9 13 16 19 21 23 24 25 26 28 29 30
8 8 8 9 11 13 13 12 11 9 8 6 6 6 7 6 5 4 3 3 4 3 2 5 4 6 5 9 13 17 20 22 23 24 25 26 27 29
8 8 8 8 9 7 9 11 11 14 14 10 9 10 8 7 6 6 5 5 6 5 3 6 4 6 5 11 15 16 18 20 22 23 24 25 27 28
9 9 9 9 10 9 9 9 9 9 11 10 9 10 10 9 8 8 7 6 6 5 4 5 5 6 6 7 14 16 17 18 19 20 22 23 25 27
10 10 10 10 13 15 10 10 10 10 12 15 15 14 15 15 10 5 5 5 6 5 4 4 5 5 5 6 9 14 15 15 16 18 19 20 22 23
8 9 13 14 14 14 9 9 11 11 9 8 9 10 9 10 12 9 8 7 6 5 5 5 4 3 4 3 3 5 7 10 14 16 17 18 18 14
8 8 9 14 15 14 11 9 13 11 7 7 7 7 6 6 7 7 8 9 8 8 6 5 4 3 4 4 3 3 4 4 5 8 13 16 18 15
10 9 9 14 15 13 9 11 14 10 5 5 6 7 7 8 8 8 8 9 11 12 10 7 6 6 5 5 5 4 3 4 4 5 5 10 14 17
11 13 13 14 13 10 13 14 10 6 6 7 9 10 9 8 7 6 7 8 9 12 13 10 9 8 7 7 6 5 4 4 5 6 6 6 7 7
10 10 12 13 11 11 10 9 8 8 8 9 8 9 7 6 7 6 6 6 5 7 8 11 10 11 9 9 7 7 6 4 3 5 5 6 6 7
6 4 4 4 6 7 7 8 7 7 9 9 9 9 8 8 8 7 6 6 6 6 6 5 6 8 10 8 7 8 7 6 6 5 5 6 6 7
7 5 6 7 8 9 9 8 8 9 9 9 9 9 9 9 9 7 6 7 8 8 7 6 4 3 3 6 10 9 8 7 6 6 6 7 7 6
7 7 8 8 9 9 9 9 9 9 8 9 9 10 9 9 9 8 8 7 8 8 8 6 6 6 7 7 6 10 9 7 6 7 7 6 6 6
7 9 9 9 9 9 9 9 9 8 8 8 9 9 9 9 9 9 9 9 9 8 7 6 7 8 9 8 6 5 10 8 7 8 6 4 2 3
9 10 10 9 9 9 9 9 9 9 9 8 8 9 9 9 9 9 9 11 10 8 9 9 9 12 7 4 4 4 4 8 8 6 6 5 4 4
9 9 9 9 9 8 8 8 8 8 9 9 8 8 8 8 10 10 9 9 9 9 10 8 6 5 6 7 8 7 5 4 3 3 4 2 4 7
8 8 8 8 8 7 7 8 9 8 8 8 8 8 8 8 8 8 9 9 8 9 8 7 5 5 7 8 8 7 7 7 5 4 1 7 2 1
Wind_Direction
242 243 238 245 238 227 204 185 187 266 289 284 299 311 321 315 309 300 282 271 266 261 254 250 249 251 249 245 238 233 229 224 221 220 219 219 219 221
238 242 245 245 248 241 226 211 190 197 246 264 265 282 304 311 309 298 288 283 273 267 261 255 252 251 251 248 243 237 231 226 222 220 218 218 218 219
247 240 245 243 241 244 239 232 223 201 243 269 259 279 295 299 305 302 293 282 276 271 267 262 256 253 251 249 246 240 235 229 225 221 218 217 216 217
240 240 247 247 239 239 236 237 237 224 227 265 277 281 282 287 290 294 292 287 277 275 270 264 259 256 253 250 247 242 237 233 228 224 220 218 216 217
231 232 239 238 243 242 238 239 239 243 222 238 264 265 274 284 300 301 295 292 292 286 275 267 262 257 254 252 248 243 239 235 232 227 223 220 218 217
231 230 233 230 235 239 242 239 237 240 237 241 257 266 269 279 291 298 309 309 302 297 285 279 272 267 260 254 248 243 239 235 233 230 225 223 221 219
236 235 236 240 240 236 237 232 229 230 232 238 252 265 270 278 273 269 285 299 299 282 303 300 291 278 270 260 251 245 239 235 232 230 227 224 222 221
233 241 247 253 255 254 254 248 229 225 227 230 241 246 256 252 252 256 268 292 297 287 313 297 288 278 267 258 254 249 243 237 232 229 228 226 224 223
227 235 250 253 253 253 264 270 260 244 230 223 231 241 246 241 239 255 250 246 252 260 285 283 279 276 270 266 257 252 246 239 233 230 228 227 226 225
228 229 236 250 255 248 254 262 259 255 243 233 229 237 238 236 228 236 246 254 259 259 235 262 272 269 271 267 262 251 248 242 236 231 229 228 227 227
235 234 233 243 252 251 249 254 260 261 256 242 233 236 241 243 234 231 244 250 269 269 226 232 259 266 266 263 259 252 246 244 240 235 233 231 229 227
240 239 237 241 251 254 242 240 251 257 254 255 246 248 248 250 244 225 224 234 247 262 239 216 244 249 277 266 257 253 248 248 245 239 233 230 225 222
239 241 238 237 243 250 241 231 241 246 244 239 244 251 253 247 244 230 220 223 230 241 236 206 229 231 248 285 287 256 241 243 242 240 234 228 221 214
236 237 235 235 238 243 241 236 244 248 238 238 244 250 251 251 248 241 232 229 232 238 239 210 220 229 238 257 268 269 252 239 238 243 232 224 222 221
236 233 231 235 238 244 245 246 246 235 227 237 246 250 246 246 247 251 253 244 243 244 245 224 220 227 223 236 249 253 261 252 229 235 232 222 216 207
236 238 238 242 242 241 247 250 238 228 227 238 246 251 247 243 244 242 249 251 253 262 248 232 221 220 230 233 238 248 237 240 237 228 232 232 222 210
196 206 219 230 238 242 244 245 240 233 235 240 243 248 247 246 249 239 236 238 239 251 261 254 229 222 222 218 230 240 239 237 236 228 228 236 229 215
169 209 224 230 238 244 246 248 241 237 236 236 237 239 242 244 248 242 230 231 241 245 245 243 230 228 236 241 221 232 236 233 228 220 222 232 231 212
190 222 230 236 240 242 244 246 247 242 234 232 235 237 238 240 240 242 237 234 239 242 241 230 214 211 231 248 240 214 220 223 216 221 222 224 226 209
217 227 233 236 237 241 244 245 247 245 237 234 235 236 234 236 238 238 235 232 236 239 241 230 217 214 221 232 233 227 209 209 213 222 216 208 205 167
222 229 234 236 237 238 241 244 244 245 242 235 233 233 232 230 235 237 234 233 230 232 236 238 232 222 220 202 225 237 223 209 209 211 195 188 185 180
226 230 234 235 236 237 241 244 247 246 245 241 238 235 231 228 232 235 233 231 230 229 234 239 228 206 196 211 228 229 214 194 183 134 110 137 188 191
228 230 233 237 239 240 241 244 245 247 244 239 237 235 231 229 230 232 233 232 231 230 229 230 219 207 211 214 220 217 202 191 182 171 79 11 350 174
Height
1536 1535 1535 1535 1535 1535 1535 1534 1534 1531 1530 1530 1531 1531 1530 1530 1530 1529 1529 1529 1529 1529 1529 1529 1530 1531 1533 1535 1538 1541 1545 1549 1553 1557 1561 1564 1568 1572
1533 1532 1532 1531 1531 1531 1531 1531 1530 1529 1527 1526 1526 1526 1526 1526 1526 1525 1525 1524 1524 1524 1524 1524 1524 1524 1525 1527 1530 1532 1536 1540 1544 1548 1552 1556 1560 1564
1529 1528 1528 1527 1527 1526 1526 1526 1526 1525 1523 1521 1522 1522 1521 1521 1520 1520 1520 1519 1519 1519 1518 1518 1518 1518 1519 1519 1521 1523 1526 1530 1534 1539 1543 1547 1552 1556
1524 1524 1523 1523 1522 1522 1521 1521 1520 1520 1519 1516 1516 1516 1516 1516 1515 1514 1514 1513 1513 1513 1512 1512 1512 1512 1512 1512 1513 1515 1517 1520 1524 1529 1533 1538 1542 1547
1519 1519 1518 1518 1517 1517 1516 1515 1515 1515 1514 1512 1511 1511 1510 1510 1509 1509 1508 1507 1507 1507 1506 1506 1506 1506 1505 1506 1506 1507 1509 1512 1515 1519 1523 1528 1533 1537
1514 1514 1513 1512 1512 1511 1510 1510 1509 1509 1509 1508 1506 1506 1505 1505 1504 1503 1502 1501 1501 1501 1500 1500 1499 1499 1499 1499 1499 1500 1501 1503 1506 1509 1513 1518 1523 1528
1508 1508 1507 1506 1505 1505 1504 1504 1504 1503 1503 1502 1501 1501 1500 1499 1499 1498 1497 1496 1495 1495 1494 1494 1493 1493 1492 1492 1492 1493 1494 1495 1497 1500 1504 1508 1513 1518
1502 1501 1500 1499 1499 1498 1498 1498 1498 1497 1497 1497 1496 1495 1494 1494 1494 1493 1492 1490 1489 1490 1489 1488 1488 1487 1486 1486 1486 1486 1487 1488 1489 1492 1495 1499 1503 1507
1496 1495 1494 1493 1492 1491 1491 1491 1491 1491 1491 1491 1490 1489 1489 1489 1488 1487 1486 1485 1484 1484 1483 1480 1482 1480 1480 1480 1479 1479 1479 1480 1482 1484 1486 1490 1493 1498
1489 1489 1487 1487 1486 1485 1485 1484 1484 1484 1485 1484 1484 1483 1483 1482 1482 1481 1480 1478 1477 1478 1478 1475 1474 1474 1474 1473 1473 1473 1473 1473 1474 1476 1478 1481 1485 1489
1483 1482 1481 1480 1480 1479 1478 1477 1477 1477 1478 1478 1477 1477 1476 1476 1476 1475 1473 1472 1470 1470 1472 1470 1468 1467 1466 1466 1466 1467 1467 1467 1467 1469 1471 1473 1476 1479
1477 1476 1475 1474 1474 1473 1472 1471 1470 1470 1471 1470 1470 1470 1469 1469 1469 1468 1467 1466 1464 1463 1464 1464 1463 1462 1460 1459 1460 1460 1460 1461 1461 1462 1464 1466 1468 1470
1470 1469 1468 1468 1467 1466 1466 1465 1464 1464 1463 1463 1462 1462 1461 1461 1461 1461 1460 1459 1458 1457 1458 1459 1458 1457 1457 1455 1454 1455 1455 1455 1455 1455 1457 1458 1460 1462
1462 1462 1461 1461 1460 1459 1458 1458 1457 1457 1456 1455 1454 1453 1453 1452 1452 1453 1452 1451 1451 1451 1451 1452 1451 1452 1451 1450 1449 1449 1449 1450 1450 1450 1450 1452 1453 1455
1454 1454 1454 1453 1452 1451 1451 1450 1450 1449 1448 1446 1445 1444 1444 1444 1444 1444 1443 1444 1443 1443 1444 1445 1445 1445 1445 1444 1444 1444 1444 1444 1445 1445 1445 1445 1446 1448
1446 1446 1445 1445 1444 1443 1443 1442 1441 1441 1440 1438 1437 1436 1436 1436 1436 1436 1436 1436 1436 1436 1437 1438 1438 1439 1438 1438 1438 1438 1438 1438 1439 1440 1440 1440 1441 1442
1438 1437 1436 1436 1435 1434 1434 1433 1433 1432 1431 1430 1429 1429 1429 1428 1428 1429 1429 1429 1429 1428 1429 1431 1432 1432 1432 1432 1432 1432 1432 1433 1434 1435 1435 1435 1435 1436
1430 1428 1428 1427 1426 1426 1425 1424 1423 1423 1422 1422 1422 1421 1421 1421 1421 1421 1422 1422 1421 1422 1422 1424 1425 1425 1425 1425 1426 1426 1427 1427 1429 1430 1430 1430 1431 1432
1420 1419 1419 1419 1418 1417 1417 1415 1415 1414 1414 1414 1414 1414 1414 1414 1414 1414 1414 1414 1414 1415 1415 1417 1418 1419 1418 1418 1419 1421 1421 1422 1423 1424 1424 1425 1426 1428
1410 1411 1410 1410 1410 1409 1408 1408 1407 1407 1406 1406 1406 1406 1406 1406 1406 1406 1406 1407 1407 1408 1408 1409 1410 1411 1412 1412 1413 1414 1415 1416 1417 1418 1419 1420 1421 1424
1402 1402 1402 1402 1401 1401 1400 1400 1399 1399 1399 1399 1398 1398 1398 1398 1398 1398 1399 1399 1400 1400 1400 1401 1403 1405 1406 1407 1407 1407 1409 1410 1411 1413 1414 1415 1417 1418
1393 1394 1394 1394 1393 1393 1393 1392 1391 1391 1391 1390 1390 1390 1390 1390 1390 1391 1391 1392 1392 1392 1393 1394 1396 1398 1399 1399 1400 1401 1403 1405 1406 1407 1409 1410 1411 1413
1386 1386 1386 1386 1386 1386 1385 1385 1384 1383 1383 1382 1382 1382 1382 1382 1383 1383 1383 1384 1384 1385 1386 1387 1389 1390 1391 1393 1394 1396 1397 1399 1401 1402 1404 1405 1408 1410